TimeEST,TemperatureF,Dew PointF,Humidity,Sea Level PressureIn,VisibilityMPH,Wind Direction,Wind SpeedMPH,Gust SpeedMPH,PrecipitationIn,Events,Conditions,WindDirDegrees,DateUTC
12:35 AM,35.6,35.6,100,29.48,7.0,North,-9999.0,-,N/A,,Overcast,0,2012-12-19 05:35:00
12:55 AM,35.6,33.8,93,29.48,5.0,North,-9999.0,-,N/A,,Overcast,0,2012-12-19 05:55:00
1:15 AM,35.6,35.6,100,29.49,9.0,North,-9999.0,-,N/A,,Overcast,0,2012-12-19 06:15:00
1:55 AM,35.6,33.8,93,29.49,3.0,North,-9999.0,-,N/A,,Mostly Cloudy,0,2012-12-19 06:55:00
2:15 AM,37.4,35.6,93,29.50,10.0,North,-9999.0,-,N/A,,Overcast,0,2012-12-19 07:15:00
2:35 AM,37.4,33.8,87,29.50,10.0,North,-9999.0,-,N/A,,Overcast,0,2012-12-19 07:35:00
2:55 AM,37.4,33.8,87,29.51,10.0,North,-9999.0,-,N/A,,Overcast,0,2012-12-19 07:55:00
3:15 AM,37.4,33.8,87,29.51,10.0,North,-9999.0,-,N/A,,Overcast,0,2012-12-19 08:15:00
3:35 AM,37.4,32.0,81,29.52,10.0,North,-9999.0,-,N/A,,Overcast,0,2012-12-19 08:35:00
3:55 AM,37.4,32.0,81,29.53,10.0,North,-9999.0,-,N/A,,Overcast,0,2012-12-19 08:55:00
4:15 AM,37.4,32.0,81,29.53,10.0,North,-9999.0,-,N/A,,Overcast,0,2012-12-19 09:15:00
4:35 AM,37.4,30.2,75,29.53,10.0,North,-9999.0,-,N/A,,Mostly Cloudy,0,2012-12-19 09:35:00
4:55 AM,37.4,30.2,75,29.54,10.0,North,-9999.0,-,N/A,,Scattered Clouds,0,2012-12-19 09:55:00
5:15 AM,37.4,30.2,75,29.55,10.0,North,-9999.0,-,N/A,,Mostly Cloudy,0,2012-12-19 10:15:00
5:35 AM,37.4,30.2,75,29.55,10.0,North,-9999.0,-,N/A,,Overcast,0,2012-12-19 10:35:00
5:55 AM,37.4,30.2,75,29.56,10.0,North,-9999.0,-,N/A,,Overcast,0,2012-12-19 10:55:00
6:15 AM,37.4,30.2,75,29.57,10.0,North,-9999.0,-,N/A,,Overcast,0,2012-12-19 11:15:00
6:35 AM,37.4,30.2,75,29.58,10.0,North,-9999.0,-,N/A,,Overcast,0,2012-12-19 11:35:00
7:15 AM,37.4,30.2,75,29.59,10.0,North,-9999.0,-,N/A,,Overcast,0,2012-12-19 12:15:00
7:55 AM,37.4,30.2,75,29.61,10.0,North,-9999.0,-,N/A,,Overcast,0,2012-12-19 12:55:00
8:15 AM,37.4,30.2,75,29.62,10.0,North,-9999.0,-,N/A,,Overcast,0,2012-12-19 13:15:00
9:15 AM,39.2,30.2,70,29.64,10.0,North,-9999.0,-,N/A,,Overcast,0,2012-12-19 14:15:00
9:35 AM,39.2,30.2,70,29.64,10.0,North,-9999.0,-,N/A,,Mostly Cloudy,0,2012-12-19 14:35:00
9:55 AM,39.2,30.2,70,29.64,10.0,North,-9999.0,-,N/A,,Mostly Cloudy,0,2012-12-19 14:55:00
10:15 AM,41.0,30.2,65,29.65,10.0,North,-9999.0,-,N/A,,Overcast,0,2012-12-19 15:15:00
10:35 AM,41.0,28.4,61,29.65,10.0,North,-9999.0,-,N/A,,Overcast,0,2012-12-19 15:35:00
10:55 AM,41.0,30.2,65,29.66,10.0,North,-9999.0,-,N/A,,Overcast,0,2012-12-19 15:55:00
11:15 AM,41.0,30.2,65,29.67,10.0,North,-9999.0,-,N/A,,Overcast,0,2012-12-19 16:15:00
11:35 AM,41.0,28.4,61,29.67,10.0,North,-9999.0,-,N/A,,Overcast,0,2012-12-19 16:35:00
11:55 AM,41.0,28.4,61,29.69,10.0,North,-9999.0,-,N/A,,Overcast,0,2012-12-19 16:55:00
12:35 PM,41.0,28.4,61,29.72,10.0,North,-9999.0,-,N/A,,Overcast,0,2012-12-19 17:35:00
12:55 PM,41.0,28.4,61,29.73,10.0,North,-9999.0,-,N/A,,Overcast,0,2012-12-19 17:55:00
1:15 PM,41.0,28.4,61,29.73,10.0,North,-9999.0,-,N/A,,Overcast,0,2012-12-19 18:15:00
1:35 PM,41.0,28.4,61,29.74,10.0,North,-9999.0,-,N/A,,Overcast,0,2012-12-19 18:35:00
1:55 PM,41.0,28.4,61,29.75,10.0,North,-9999.0,-,N/A,,Overcast,0,2012-12-19 18:55:00
2:15 PM,41.0,28.4,61,29.76,10.0,North,-9999.0,-,N/A,,Overcast,0,2012-12-19 19:15:00
3:15 PM,41.0,28.4,61,29.80,10.0,North,-9999.0,-,N/A,,Overcast,0,2012-12-19 20:15:00
3:35 PM,41.0,28.4,61,29.81,10.0,North,-9999.0,-,N/A,,Overcast,0,2012-12-19 20:35:00
3:55 PM,41.0,28.4,61,29.84,10.0,North,-9999.0,-,N/A,,Overcast,0,2012-12-19 20:55:00
4:15 PM,39.2,28.4,65,29.85,10.0,North,-9999.0,-,N/A,,Overcast,0,2012-12-19 21:15:00
4:35 PM,39.2,28.4,65,29.85,10.0,North,-9999.0,-,N/A,,Overcast,0,2012-12-19 21:35:00
4:55 PM,39.2,30.2,70,29.86,10.0,North,-9999.0,-,N/A,,Overcast,0,2012-12-19 21:55:00
5:15 PM,39.2,30.2,70,29.87,10.0,North,-9999.0,-,N/A,,Overcast,0,2012-12-19 22:15:00
5:35 PM,39.2,28.4,65,29.88,10.0,North,-9999.0,-,N/A,,Overcast,0,2012-12-19 22:35:00
5:55 PM,39.2,28.4,65,29.90,10.0,North,-9999.0,-,N/A,,Overcast,0,2012-12-19 22:55:00
6:15 PM,39.2,28.4,65,29.91,10.0,North,-9999.0,-,N/A,,Overcast,0,2012-12-19 23:15:00
6:35 PM,39.2,30.2,70,29.92,10.0,North,-9999.0,-,N/A,,Overcast,0,2012-12-19 23:35:00
7:35 PM,39.2,28.4,65,29.96,10.0,North,-9999.0,-,N/A,,Overcast,0,2012-12-20 00:35:00
8:15 PM,37.4,28.4,70,29.97,10.0,North,-9999.0,-,N/A,,Overcast,0,2012-12-20 01:15:00
8:35 PM,37.4,30.2,75,29.99,10.0,North,-9999.0,-,N/A,,Overcast,0,2012-12-20 01:35:00
8:55 PM,37.4,30.2,75,30.00,10.0,North,-9999.0,-,N/A,,Overcast,0,2012-12-20 01:55:00
9:15 PM,37.4,30.2,75,30.00,10.0,North,-9999.0,-,N/A,,Overcast,0,2012-12-20 02:15:00
9:35 PM,37.4,30.2,75,30.00,10.0,North,-9999.0,-,N/A,,Overcast,0,2012-12-20 02:35:00
9:55 PM,37.4,30.2,75,30.01,10.0,North,-9999.0,-,N/A,,Overcast,0,2012-12-20 02:55:00
10:15 PM,37.4,28.4,70,30.02,10.0,North,-9999.0,-,N/A,,Overcast,0,2012-12-20 03:15:00
10:35 PM,37.4,30.2,75,30.03,10.0,North,-9999.0,-,N/A,,Overcast,0,2012-12-20 03:35:00
10:55 PM,37.4,28.4,70,30.04,10.0,North,-9999.0,-,N/A,,Overcast,0,2012-12-20 03:55:00
11:15 PM,37.4,28.4,70,30.05,10.0,North,-9999.0,-,N/A,,Overcast,0,2012-12-20 04:15:00
11:35 PM,37.4,28.4,70,30.06,10.0,North,-9999.0,-,N/A,,Overcast,0,2012-12-20 04:35:00
11:55 PM,37.4,26.6,65,30.06,10.0,ENE,10.4,-,N/A,,Overcast,60,2012-12-20 04:55:00